Back to catalog

CZ-4 DEB

AliveSSO
NORAD 26338·DEBRIS·🇨🇳 China

Launched Oct 14, 1999 from Taiyuan Satellite Launch Center

Loading…

Next Passes (next 24 hours)

TLE

FreshSource: Space-Track

Epoch: Sep 14, 2026, 14:54 UTC

1 26338U 99057HX  26257.62149999  .00000252  00000-0  91065-4 0  9997
2 26338  98.6837 310.2712 0088160 257.3891 265.2487 14.40067794389331

Track CZ-4 DEB in real time with AllMySat

Download on the App Store